Вернуться в каталог

STARLINK-33878

АктивенСвязьVLEO
NORAD 63862·PAYLOAD·🇺🇸 United States

Запущен May 7, 2025 с Cape Canaveral Space Force Station

Loading…

Ближайшие Пролёты (ближайшие 24 часа)

TLE

СвежийSource: CelesTrak SupGP

Эпоха: Sep 15, 2026, 02:29 UTC

1 63862C 25093AC  26258.10395833  .00013066  00000+0  47327-3 0  2588
2 63862  43.0016  88.2998 0001664 276.2154 267.7883 15.27571238    12

Отслеживайте STARLINK-33878 в реальном времени с AllMySat

Download on the App Store